Wind_Speed
17 19 21 22 23 25 27 29 31 34 37 40 41 42 43 44 46 47 48 49 51 53 54 56 58 61 63 65 66 68 69 70 71 71 71 70 68 66 64 62 59 56 52 50
19 21 23 24 25 28 30 31 34 36 38 39 41 43 44 46 48 50 52 55 57 59 61 63 65 67 69 71 72 74 75 76 76 77 77 76 74 72 70 67 64 60 56 53
21 23 25 26 27 29 30 32 34 37 39 41 43 45 47 51 54 56 59 62 64 66 68 69 71 73 74 76 77 78 80 80 81 81 80 79 77 75 73 70 67 63 58 55
22 24 25 27 28 30 32 33 35 38 41 45 48 51 53 57 60 62 64 66 68 70 72 73 73 74 75 75 76 76 76 77 76 76 75 74 73 72 70 67 64 60 56 52
23 25 28 28 30 32 34 36 39 43 47 50 53 56 59 63 65 67 69 71 72 72 71 69 68 66 65 63 63 63 63 63 63 62 62 62 62 61 61 60 58 56 53 50
24 26 29 32 33 36 40 43 46 49 52 55 59 62 64 67 70 71 72 71 69 65 62 59 56 55 53 50 49 48 47 46 46 46 45 45 45 46 47 48 49 49 48 46
26 28 31 34 37 40 43 48 51 54 57 61 64 67 69 70 71 70 67 63 59 55 50 47 45 42 40 39 38 37 36 36 35 35 35 35 35 36 37 38 40 42 43 43
28 31 35 38 40 43 46 50 54 57 61 64 67 69 70 69 67 63 57 52 48 45 42 40 39 38 37 35 35 35 34 32 30 29 28 28 27 28 29 31 33 35 38 39
30 33 37 41 44 47 50 54 57 61 65 68 69 69 67 64 59 53 47 44 42 40 39 39 38 38 37 36 36 35 33 32 30 28 26 25 24 23 25 26 28 30 32 36
34 37 40 43 47 50 54 57 61 65 68 69 68 66 61 56 49 45 42 41 40 40 39 39 39 38 38 37 36 35 33 31 30 28 26 25 24 23 22 23 25 27 28 32
37 40 43 46 51 54 57 61 64 67 68 67 65 60 55 48 44 41 40 40 41 41 40 40 39 38 38 38 37 36 34 32 31 29 26 25 25 24 23 23 24 25 27 30
40 44 47 50 53 57 60 64 67 68 67 63 59 54 49 44 41 40 40 41 41 41 42 41 41 39 39 38 37 36 34 33 31 28 27 26 25 25 24 24 24 25 26 28
42 45 49 52 56 60 63 67 68 67 64 59 53 48 44 41 40 40 41 42 43 43 43 42 41 39 38 37 36 34 33 31 29 27 26 25 25 24 24 24 25 26 26 27
45 49 52 55 58 62 66 68 68 65 60 54 48 43 41 40 40 41 43 44 45 44 43 42 40 38 36 36 34 32 31 29 27 26 25 24 23 23 23 23 25 26 26 28
47 51 54 57 60 64 67 69 67 62 56 49 44 42 41 41 42 43 45 45 45 44 42 40 38 36 35 34 31 29 27 25 23 22 21 21 20 21 22 23 24 25 27 30
48 52 56 59 62 66 69 69 67 60 53 47 43 41 42 44 45 45 46 46 45 43 41 39 37 36 34 31 27 24 21 20 19 18 17 18 18 19 20 22 24 26 29 33
51 54 57 61 64 67 69 69 65 58 51 45 43 42 43 45 46 47 46 46 45 42 40 38 35 32 29 25 22 18 16 15 13 12 13 14 16 19 21 22 25 28 31 35
52 56 59 63 66 69 69 67 61 55 49 45 43 44 46 47 48 49 47 45 43 39 37 35 32 28 23 20 16 13 11 9 8 9 11 14 17 20 22 26 28 30 35 37
53 56 59 63 66 69 69 66 59 53 48 45 44 45 48 49 49 48 46 43 40 37 34 31 26 21 17 14 10 7 6 5 7 10 12 15 18 22 26 29 31 34 36 39
53 57 60 63 66 68 67 64 58 51 47 45 45 47 48 48 48 46 44 41 37 34 31 26 21 16 12 9 4 1 3 6 10 13 16 19 23 26 28 31 34 36 39 40
54 57 60 63 65 67 66 62 56 49 46 45 47 47 48 47 45 43 41 38 34 31 27 22 17 13 9 6 5 6 8 11 16 19 23 25 28 29 31 32 35 36 37 38
54 57 60 62 64 65 65 60 54 48 45 45 46 47 47 45 42 40 38 35 32 29 24 20 16 13 10 10 12 13 16 19 22 24 27 28 30 31 32 33 35 35 36 36
54 56 59 62 63 64 63 58 52 46 44 44 45 45 44 43 41 38 36 33 30 27 23 20 17 15 13 15 18 20 22 24 26 27 30 31 32 32 33 32 32 32 34 33
53 56 58 60 62 63 61 55 49 44 42 42 44 43 42 40 37 35 34 31 28 25 23 21 19 17 18 20 21 23 24 26 27 29 31 31 31 31 30 30 30 31 31 30
52 55 57 59 61 61 59 53 46 41 39 40 41 40 39 37 34 33 32 29 27 25 23 21 20 20 22 24 25 26 27 28 29 30 30 29 28 28 27 28 28 28 27 26
52 54 56 58 59 59 57 51 43 39 37 37 37 36 35 33 31 29 28 27 25 24 22 20 20 21 23 25 25 26 27 28 28 28 27 26 26 25 25 25 24 23 23 22
51 53 54 56 57 56 54 49 42 37 35 35 35 34 33 30 28 27 25 24 23 23 21 20 21 22 23 25 26 27 27 27 27 26 24 23 23 22 22 21 21 21 20 19
Wind_Direction
309 308 308 309 311 311 309 308 305 304 302 304 303 302 301 300 298 296 294 293 291 289 287 286 284 282 280 279 278 276 275 275 274 274 274 275 275 276 277 277 277 277 278 279
313 312 312 313 314 312 310 309 307 306 305 305 304 303 302 301 300 298 297 296 294 292 290 287 285 283 281 279 278 277 276 275 274 273 273 273 274 273 274 274 274 274 274 275
318 317 315 317 317 314 313 311 310 309 308 308 306 306 305 304 302 301 299 297 295 293 291 288 286 284 282 281 280 279 278 277 276 275 274 273 273 272 271 271 271 271 271 271
322 320 319 321 319 316 314 313 311 309 309 309 308 307 307 305 303 302 300 299 297 295 293 291 290 288 286 285 283 282 281 279 278 276 275 273 272 270 268 267 266 266 265 264
325 322 319 322 319 317 315 313 312 311 310 310 309 308 308 307 306 305 303 302 300 299 298 297 296 294 293 291 289 287 285 283 281 279 277 274 272 269 266 263 261 259 257 255
325 322 321 322 319 317 316 314 315 315 314 313 312 312 311 310 309 307 305 304 304 303 303 302 302 300 299 297 295 293 291 288 284 281 278 274 270 266 262 258 255 252 249 246
324 321 319 319 319 319 319 318 318 317 317 316 315 314 313 311 310 308 308 308 307 307 308 308 307 307 306 304 302 300 298 296 293 288 281 274 268 262 257 252 249 245 240 236
323 322 321 321 320 320 319 319 319 319 319 318 317 316 315 313 312 311 311 311 310 311 311 311 310 309 308 306 304 302 301 300 297 293 286 278 269 261 255 250 245 239 234 229
323 323 321 321 322 323 322 322 322 322 322 321 319 318 316 315 314 314 313 313 312 312 312 311 310 308 307 306 303 302 301 299 296 292 287 278 269 262 255 250 243 237 232 223
325 325 326 326 325 325 325 325 325 325 324 323 321 320 318 317 317 315 315 314 313 313 312 311 309 307 305 303 302 301 300 298 295 291 285 277 268 261 254 249 244 237 231 222
329 328 329 328 328 328 328 328 328 327 326 325 323 322 321 320 319 318 317 316 315 314 312 311 309 306 304 302 300 299 298 296 293 288 281 273 265 259 254 249 244 235 228 222
331 330 330 331 330 329 329 330 330 330 329 327 325 324 324 323 322 321 319 318 317 315 313 311 308 306 304 302 299 298 296 294 291 284 278 271 263 256 252 247 241 231 222 216
331 331 331 331 331 331 331 332 333 332 331 329 328 327 327 325 324 323 322 321 319 317 315 312 309 306 304 302 299 296 295 292 287 281 275 268 260 252 245 240 233 222 217 212
331 332 332 332 333 333 333 334 335 334 333 332 331 330 328 327 326 324 323 322 321 319 316 313 310 307 304 301 298 295 292 289 284 278 270 262 251 243 237 233 223 215 210 205
332 332 333 333 334 335 336 337 337 337 335 334 333 331 330 329 327 326 324 323 322 320 318 315 313 310 307 302 297 293 288 286 283 276 264 253 242 232 225 220 212 204 202 197
333 333 334 335 336 337 338 339 339 339 338 336 334 333 332 331 329 328 327 326 324 322 320 318 315 313 309 305 299 293 286 283 281 270 253 239 226 217 212 208 201 196 193 188
333 334 335 336 337 339 340 341 341 340 339 338 337 336 334 333 331 330 329 327 326 324 322 321 318 315 311 308 300 292 286 282 276 254 234 219 208 200 196 193 186 181 179 178
334 336 337 338 339 340 342 343 342 341 341 340 339 338 337 336 334 333 331 330 329 327 326 324 322 319 315 311 301 288 281 274 255 221 204 192 185 183 181 175 171 171 171 173
335 337 338 339 340 342 343 344 344 343 342 342 341 340 340 339 338 337 336 335 334 333 331 329 329 328 324 321 311 290 259 234 201 181 175 171 168 166 165 164 166 167 169 170
336 337 339 340 341 343 344 345 345 345 344 344 344 343 343 342 342 342 343 343 343 342 341 341 340 340 335 333 330 253 165 155 155 157 153 153 154 155 156 156 159 161 163 165
336 338 340 341 343 344 345 346 347 346 346 346 346 345 346 346 347 348 349 351 352 352 354 356 358 4 12 29 77 113 120 130 138 142 142 143 145 147 149 151 154 157 160 162
336 339 341 343 344 345 346 347 348 348 348 348 348 349 350 352 353 355 356 358 1 3 8 12 22 34 51 73 95 107 113 122 128 133 137 139 140 142 145 149 153 156 160 162
337 339 341 343 345 346 347 348 349 349 350 350 351 353 355 357 358 0 3 6 9 16 22 29 38 51 72 89 98 106 114 120 123 128 132 134 137 141 145 149 153 158 161 163
338 340 342 344 345 347 348 350 350 351 351 352 353 356 358 1 4 8 10 13 18 25 34 42 51 65 84 97 103 108 115 121 123 127 131 133 136 140 144 148 153 157 160 162
338 340 342 344 345 347 349 350 351 352 354 355 356 358 1 5 8 12 16 21 27 35 43 52 63 76 89 97 103 108 115 121 123 126 129 133 137 140 145 149 153 157 162 166
338 340 342 344 345 347 349 351 352 353 356 358 360 2 5 9 12 16 20 26 35 43 52 63 74 85 93 100 107 112 117 121 124 126 128 131 136 140 144 150 155 159 163 166
337 340 342 344 345 347 349 351 352 354 356 359 2 5 8 11 15 19 25 33 41 49 59 70 81 90 98 105 109 113 117 120 123 125 128 131 135 139 143 148 154 159 162 166
Height
5842 5839 5836 5833 5830 5827 5823 5820 5816 5811 5805 5800 5794 5789 5783 5778 5772 5766 5760 5754 5748 5743 5737 5732 5727 5722 5717 5712 5708 5703 5700 5697 5694 5691 5690 5689 5689 5689 5689 5690 5691 5693 5694 5695
5838 5835 5831 5828 5825 5821 5817 5813 5808 5803 5797 5791 5784 5778 5771 5765 5758 5751 5744 5738 5731 5725 5718 5712 5706 5701 5695 5690 5685 5680 5676 5673 5670 5668 5666 5666 5666 5667 5668 5670 5672 5674 5676 5679
5834 5830 5826 5822 5820 5814 5810 5805 5800 5793 5788 5780 5773 5766 5759 5751 5743 5735 5727 5719 5712 5704 5697 5690 5683 5676 5670 5665 5659 5655 5651 5647 5643 5641 5641 5640 5641 5642 5645 5647 5650 5654 5657 5661
5829 5826 5821 5820 5813 5808 5802 5797 5791 5784 5776 5769 5761 5753 5745 5735 5726 5718 5709 5700 5690 5681 5673 5665 5657 5650 5644 5638 5632 5627 5623 5620 5616 5614 5614 5614 5614 5617 5620 5623 5628 5633 5637 5642
5824 5820 5815 5812 5806 5799 5793 5788 5781 5773 5765 5757 5747 5739 5730 5718 5708 5698 5688 5678 5667 5658 5648 5639 5631 5624 5618 5612 5606 5601 5597 5594 5592 5590 5589 5589 5590 5592 5596 5600 5605 5611 5618 5624
5819 5814 5810 5805 5797 5790 5785 5776 5769 5760 5751 5742 5732 5723 5714 5701 5689 5677 5666 5655 5645 5635 5626 5618 5611 5603 5598 5592 5587 5582 5578 5575 5573 5571 5569 5569 5570 5572 5575 5579 5585 5591 5598 5606
5814 5808 5803 5797 5789 5783 5776 5768 5757 5748 5738 5727 5716 5705 5694 5682 5669 5656 5645 5635 5625 5617 5610 5603 5595 5589 5584 5579 5574 5569 5565 5562 5559 5557 5555 5555 5555 5557 5559 5563 5567 5573 5581 5588
5809 5803 5797 5789 5781 5775 5767 5756 5746 5735 5724 5712 5700 5688 5674 5661 5649 5638 5627 5619 5610 5603 5597 5591 5584 5578 5573 5568 5564 5559 5556 5552 5550 5547 5545 5544 5544 5546 5547 5550 5554 5559 5566 5573
5803 5798 5789 5780 5772 5764 5754 5744 5733 5722 5710 5696 5683 5670 5656 5644 5633 5623 5614 5606 5599 5592 5586 5580 5574 5568 5562 5558 5553 5549 5546 5543 5540 5538 5537 5536 5536 5537 5538 5540 5544 5548 5554 5561
5795 5788 5781 5772 5762 5753 5743 5732 5720 5707 5694 5680 5666 5653 5640 5629 5620 5611 5603 5595 5588 5582 5575 5570 5564 5557 5552 5547 5543 5539 5536 5533 5531 5529 5528 5527 5528 5529 5531 5533 5536 5540 5545 5551
5787 5780 5772 5763 5753 5742 5732 5720 5707 5694 5679 5664 5650 5638 5626 5617 5608 5600 5593 5585 5578 5571 5564 5558 5552 5546 5541 5536 5531 5528 5525 5522 5520 5519 5518 5518 5519 5521 5523 5525 5528 5532 5537 5542
5780 5772 5763 5754 5743 5731 5720 5708 5695 5680 5666 5651 5636 5624 5615 5606 5598 5590 5583 5575 5568 5560 5553 5547 5540 5535 5529 5524 5519 5516 5513 5511 5509 5508 5508 5508 5510 5512 5514 5517 5520 5525 5530 5536
5773 5764 5755 5745 5734 5721 5709 5696 5681 5666 5651 5638 5626 5614 5605 5597 5589 5581 5573 5565 5557 5549 5541 5534 5528 5522 5517 5512 5507 5504 5501 5499 5498 5497 5497 5498 5500 5502 5505 5509 5512 5518 5524 5531
5764 5756 5746 5736 5724 5712 5698 5684 5669 5653 5639 5626 5615 5606 5597 5589 5581 5573 5564 5555 5546 5537 5529 5522 5515 5509 5504 5499 5495 5492 5490 5488 5486 5486 5486 5488 5490 5493 5496 5500 5505 5511 5518 5526
5758 5748 5737 5726 5715 5702 5688 5673 5658 5644 5630 5618 5608 5598 5589 5581 5572 5563 5554 5544 5535 5526 5518 5510 5503 5497 5491 5487 5483 5480 5478 5477 5476 5476 5476 5478 5481 5485 5489 5494 5500 5506 5514 5521
5751 5741 5729 5718 5705 5692 5677 5662 5647 5634 5621 5610 5600 5591 5582 5573 5563 5554 5544 5534 5524 5515 5506 5499 5492 5485 5480 5475 5472 5470 5469 5468 5467 5467 5468 5471 5474 5478 5483 5489 5495 5502 5510 5519
5743 5733 5721 5709 5696 5682 5667 5652 5637 5624 5613 5603 5594 5584 5575 5565 5555 5545 5534 5523 5513 5504 5495 5488 5481 5474 5469 5465 5463 5462 5461 5461 5461 5461 5463 5466 5470 5474 5480 5486 5493 5500 5509 5518
5734 5723 5711 5699 5686 5673 5659 5644 5630 5617 5606 5596 5587 5577 5567 5557 5546 5535 5524 5514 5504 5494 5486 5478 5471 5465 5461 5458 5456 5455 5455 5456 5457 5458 5460 5464 5468 5473 5479 5486 5493 5501 5510 5520
5727 5716 5705 5692 5678 5664 5650 5636 5623 5611 5600 5590 5581 5571 5561 5549 5538 5527 5516 5505 5495 5486 5479 5471 5464 5459 5455 5453 5452 5451 5452 5453 5454 5457 5460 5464 5469 5474 5481 5488 5496 5504 5513 5523
5720 5709 5698 5685 5672 5658 5644 5630 5617 5605 5595 5585 5576 5566 5555 5544 5532 5521 5510 5499 5489 5480 5472 5466 5460 5456 5453 5451 5451 5451 5451 5453 5455 5458 5462 5467 5473 5479 5485 5493 5500 5509 5518 5527
5713 5703 5691 5679 5666 5652 5638 5624 5612 5601 5591 5581 5572 5561 5550 5539 5528 5517 5506 5497 5488 5478 5471 5464 5459 5455 5453 5452 5452 5453 5454 5456 5459 5463 5468 5473 5479 5486 5492 5500 5508 5516 5525 5533
5707 5696 5685 5673 5660 5647 5633 5620 5608 5597 5588 5578 5569 5558 5548 5537 5526 5516 5506 5496 5487 5479 5472 5467 5463 5459 5457 5457 5457 5458 5460 5462 5466 5470 5475 5481 5487 5494 5501 5508 5516 5524 5532 5540
5700 5690 5679 5667 5655 5642 5629 5616 5605 5595 5586 5577 5567 5557 5546 5536 5526 5516 5507 5499 5490 5483 5477 5472 5468 5465 5464 5463 5464 5466 5468 5471 5475 5479 5485 5491 5497 5504 5510 5517 5524 5531 5539 5546
5695 5685 5674 5663 5651 5638 5626 5614 5603 5594 5585 5576 5566 5557 5547 5538 5529 5519 5511 5503 5496 5489 5484 5479 5476 5473 5472 5472 5474 5476 5479 5482 5486 5490 5496 5501 5507 5513 5519 5525 5532 5538 5545 5551
5689 5679 5669 5658 5647 5636 5624 5613 5603 5594 5585 5577 5568 5558 5549 5540 5532 5524 5517 5509 5503 5497 5492 5489 5486 5483 5483 5483 5485 5487 5490 5494 5498 5502 5507 5512 5517 5522 5528 5533 5539 5545 5551 5556
5683 5674 5664 5654 5643 5632 5621 5611 5601 5593 5586 5578 5569 5561 5553 5545 5537 5530 5523 5517 5511 5506 5502 5499 5496 5495 5495 5495 5497 5499 5502 5505 5509 5513 5517 5522 5526 5531 5536 5540 5545 5550 5555 5560
5678 5669 5660 5650 5640 5629 5619 5609 5600 5593 5585 5578 5571 5563 5556 5549 5542 5536 5530 5524 5520 5516 5512 5509 5508 5507 5507 5507 5509 5511 5514 5517 5520 5523 5527 5531 5534 5538 5543 5546 5551 5555 5559 5563